CST,Max TemperatureF,Mean TemperatureF,Min TemperatureF,Max Dew PointF,MeanDew PointF,Min DewpointF,Max Humidity, Mean Humidity, Min Humidity, Max Sea Level PressureIn, Mean Sea Level PressureIn, Min Sea Level PressureIn, Max VisibilityMiles, Mean VisibilityMiles, Min VisibilityMiles, Max Wind SpeedMPH, Mean Wind SpeedMPH, Max Gust SpeedMPH,PrecipitationIn, CloudCover, Events, WindDirDegrees
2013-1-1,11,3,-5,3,-3,-9,87,77,66,30.37,30.30,30.20,10,10,5,12,4,15,0.00,0,,307
2013-1-2,30,14,-2,25,13,-5,95,84,73,30.19,30.11,30.02,10,8,5,16,7,21,T,5,Snow,236
2013-1-3,30,18,6,25,11,3,88,81,73,30.41,30.30,30.15,10,10,8,18,11,24,T,4,,286
2013-1-4,30,19,7,22,14,5,96,83,69,30.31,30.24,30.18,10,10,8,13,6,16,0.00,0,,221
2013-1-5,36,23,9,30,19,7,96,85,74,30.17,30.07,29.96,10,8,3,22,10,28,0.00,3,,251
2013-1-6,24,18,11,17,12,6,92,80,67,30.32,30.25,30.11,10,10,7,23,8,29,0.00,1,,273
2013-1-7,37,24,12,30,22,11,96,80,67,30.21,30.08,30.03,10,10,6,18,8,,0.00,0,,190
2013-1-8,39,28,17,32,23,15,100,88,73,30.08,29.98,29.87,10,6,0,18,3,,0.00,0,Fog,196
2013-1-9,42,34,25,31,28,23,100,83,65,30.45,30.35,30.09,10,9,0,9,8,12,0.00,0,,236
2013-1-10,39,31,23,36,31,23,100,80,59,30.39,29.99,29.73,10,5,0,20,7,28,0.01,6,Fog-Rain,125
2013-1-11,48,41,33,43,38,33,100,88,76,29.73,29.58,29.46,10,3,0,23,9,29,0.01,4,Fog,154
2013-1-12,42,28,12,37,16,3,93,73,62,30.12,29.94,29.56,10,10,6,28,19,37,0.01,5,Snow,289
2013-1-13,18,13,7,8,4,0,80,71,61,30.35,30.20,30.04,10,10,6,20,11,23,T,4,Snow,296
2013-1-14,28,16,5,14,8,2,92,77,53,30.50,30.44,30.36,10,10,10,14,5,,0.00,0,,239
2013-1-15,31,20,8,16,12,7,92,73,53,30.40,30.27,30.06,10,10,10,15,8,18,0.00,0,,199
2013-1-16,45,33,20,34,25,12,89,77,65,30.23,30.02,29.87,10,10,10,23,14,28,0.00,4,,284
2013-1-17,33,23,13,23,15,5,92,73,53,30.49,30.40,30.22,10,10,10,17,6,21,0.00,2,,298
2013-1-18,50,36,21,35,29,19,92,72,52,30.32,30.02,29.87,10,10,10,31,13,39,0.00,0,,211
2013-1-19,50,33,15,33,26,4,89,70,50,30.29,29.97,29.82,10,10,10,33,14,44,0.00,1,,291
2013-1-20,15,10,5,8,4,0,84,72,59,30.45,30.39,30.31,10,6,1,22,11,28,0.01,5,Snow,317
2013-1-21,5,0,-5,-2,-7,-15,79,70,61,30.49,30.41,30.33,10,10,5,29,14,37,0.00,1,,299
2013-1-22,14,6,-3,6,-1,-8,79,70,61,30.49,30.41,30.33,10,10,10,13,6,16,0.00,4,,264
2013-1-23,26,15,3,16,6,-7,80,67,54,30.59,30.32,30.21,10,10,10,28,13,36,0.00,2,,310
2013-1-24,19,11,2,6,-3,-9,69,58,46,30.66,30.50,30.25,10,10,10,18,10,23,0.00,2,,103
2013-1-25,35,22,9,22,12,1,88,72,56,30.35,30.18,30.09,10,10,8,23,12,29,0.00,2,,289
2013-1-26,31,19,6,15,7,0,80,62,43,30.40,30.29,30.18,10,10,10,16,9,21,0.00,2,,119
2013-1-27,34,31,27,34,29,16,100,79,58,30.15,29.90,29.75,10,3,1,18,9,23,0.21,8,Rain,132
2013-1-28,45,38,31,45,36,32,100,100,100,29.94,29.76,29.58,5,1,0,22,6,28,0.54,8,Fog-Rain-Thunderstorm,122
2013-1-29,52,42,31,52,37,29,100,95,89,29.66,29.59,29.51,10,6,0,24,12,32,0.04,8,Fog-Rain-Snow-Thunderstorm,313
2013-1-30,32,23,13,28,17,7,96,84,71,29.89,29.67,29.50,10,3,0,35,21,44,0.07,8,Fog-Snow,325
2013-1-31,13,6,-2,7,-2,-10,83,74,65,30.42,30.08,29.85,10,8,1,31,19,40,T,6,Snow,303